STARLINK-1796 (46697 NORAD) Tracking and Keplerian Element Data

This shows tracking and keplerian element data for the satellite.

Feedback or suggestion? Click here.




ElementValue
Catalog46697
NameSTARLINK-1796
Epoch Orbit733
Epoch Day336.25001157
Epoch Year2020
RAAN256.4201
Inclination53.0591
Eccentricity0.0001291
Argument of Perigee61.8126
Mean Anonmoly322.7693
Mean Motion15.27398231
Decay Rate-0.01065996
L11 46697U 20073AD 20336.25001157 -.01065996 00000-0 -42791-1 0 9991
L22 46697 53.0591 256.4201 0001291 61.8126 322.7693 15.27398231 7330

Live tracking and technical data element details for STARLINK-1796 (NORAD 46697). STARLINK-1796 can be tracked NOW for your location showing map with azimuth and elevation plus other details from your city location.

Track the satellite on the map from your city or location and see movement details for azimuth, elevation, latitude, longitude, range, height, and movement on the map or in text.







IsCatalogInMostPopularTable: catalog: 46697, numindb: 9
Update: records affected: 1



GetName: 46697 STARLINK-1796

Hit Count: updated at: Wed, 02 Dec 2020 06:10:31 GMT